Regional Weather Roundup
Issued by NWS

Home | Current Version | Previous Version | Text Only | Print | Product List | Glossary Off
Versions: 1 2 3 4 5 6 7 8 9 10 11 12 13 14 15 16 17 18 19 20 21 22 23 24 25 26 27 28 29 30 31 32 33 34 35 36 37 38 39 40 41 42 43 44 45 46 47 48 49 50

000
ASUS43 KLOT 041000
RWRIL

ILLINOIS REGIONAL WEATHER ROUNDUP
NATIONAL WEATHER SERVICE CHICAGO/ROMEOVILLE IL
400 AM CST WED MAR 04 2015

NOTE: "FAIR" INDICATES FEW OR NO CLOUDS BELOW 12,000 FEET WITH NO
SIGNIFICANT WEATHER AND/OR OBSTRUCTIONS TO VISIBILITY.

* THESE STATIONS ARE NOT UNDER NWS QUALITY CONTROL. THEY ALSO MAY NOT
  REPORT WEATHER SUCH AS PRECIPITATION OR FOG.

ILZ001-002-007-009-015-016-024-041100-
NORTHWEST ILLINOIS

CITY           SKY/WX    TMP DP  RH WIND       PRES   REMARKS
MOLINE         PTCLDY    12   2  64 NW17G24   30.09R WCI  -5
STERLING*      FAIR      12   7  79 W12       30.03R WCI  -2
$$

ILZ003-004-008-010-011-017-018-041100-
NORTH CENTRAL ILLINOIS

CITY           SKY/WX    TMP DP  RH WIND       PRES   REMARKS
ROCKFORD       MOCLDY    14   6  70 NW13      29.99R WCI   0
FREEPORT*      CLEAR     11   5  76 W14       30.01R WCI  -4
DE KALB*       PTCLDY    14   9  79 NW20      29.96R WCI  -4
$$

ILZ005-006-012>014-019>023-041100-
NORTHEAST ILLINOIS

CITY           SKY/WX    TMP DP  RH WIND       PRES   REMARKS
CHICAGO-OHARE  MOCLDY    23  17  78 NW17      29.92R WCI   9
CHICAGO-MIDWAY PTCLDY    29  21  72 W15       29.93R WCI  18
AURORA         PTCLDY    18  10  71 NW16      29.97R WCI   3
LANSING*       MOCLDY    30  23  75 W6        29.91R WCI  24
WAUKEGAN       CLOUDY    24  17  74 W12       29.91R WCI  13
DUPAGE AIRPORT PTCLDY    20  13  74 NW14      29.94R WCI   7
WHEELING       CLOUDY    24  18  77 NW13      29.94R WCI  12
NORTHERLY ISL    N/A     29  22  75 W10         N/A  WCI  20
$$

LMZ740>746-041100-
SOUTHERN LAKE MICHIGAN

STATION/POSITION SKY/WX   TEMP    WIND        PRES    VSBY  WAVE
                          AIR SEA DIR/SP/G                  HT/PER
                          (F)     (DEG/KT/KT) (MB)    (MI)  (FT/S)
WAUKEGAN HARBOR            26                   N/A
HARRISON CRIB              30     280/ 14/ 17   N/A
BURNHAM HARBOR             29     320/ 10       N/A
CALUMET HARBOR             29     270/  4/  9 1011.4R
MICHIGAN CITY              31     250/ 10/ 13   N/A
$$

ILZ025>027-034>036-040-047-049-050-058-095>099-041100-
WEST-CENTRAL ILLINOIS

CITY           SKY/WX    TMP DP  RH WIND       PRES   REMARKS
QUINCY         PTCLDY    17   8  67 N18       30.10R WCI   1
MACOMB*        CLEAR     14   9  81 NW17      30.12R WCI  -3
$$

ILZ028>032-037-038-041>044-048-051>054-059>061-041100-
CENTRAL ILLINOIS

CITY           SKY/WX    TMP DP  RH WIND       PRES   REMARKS
DECATUR        CLOUDY    29  24  82 NW13      30.00R WCI  19
PEORIA         PTCLDY    18   9  68 NW12G22   30.07R WCI   5
SPRINGFIELD    CLOUDY    25  17  72 NW15      30.04R WCI  13
TAYLORVILLE    NOT AVBL
$$

ILZ033-039-045-046-055>057-062-063-041100-
EAST-CENTRAL ILLINOIS

CITY           SKY/WX    TMP DP  RH WIND       PRES   REMARKS
CHAMPAIGN      CLOUDY    29  25  85 NW16      29.97R WCI  17
MATTOON        CLOUDY    32  28  85 NW9       29.95R WCI  24
$$

ILZ079-100>102-041100-
SOUTHWEST ILLINOIS

CITY           SKY/WX    TMP DP  RH WIND       PRES   REMARKS
CAHOKIA*       CLOUDY    35  30  82 N14       29.99S WCI  26
$$

ILZ064>066-069>071-074>076-080>082-084>086-088>090-092>094-041100-
SOUTH-CENTRAL ILLINOIS

CITY           SKY/WX    TMP DP  RH WIND       PRES   REMARKS
CARBONDALE     LGT RAIN  35  33  92 N12       29.96R FOG     WCI  27
MT. VERNON     CLOUDY    34  28  80 N7        29.97S WCI  28
$$

ILZ067-068-072-073-078-083-087-091-041100-
SOUTHEAST ILLINOIS

CITY           SKY/WX    TMP DP  RH WIND       PRES   REMARKS
LAWRENCEVILLE  RAIN      34  32  92 NW8       29.96R WCI  27
$$

ABBREVIATIONS USED IN REMARKS
   TC - TEMPERATURE IN CELSIUS
  WCI - WIND CHILL INDEX
   HX - HEAT INDEX
  VSB - VISIBILITY
$$



USA.gov is the U.S. government's official web portal to all federal, state and local government web resources and services.